Orbital Elements
Epoch 2013 Aug. 16.0 TT = JDT 2456520.5
T 2013 Sept. 1.25128 TT MPC
q 1.9684390 (2000.0) P Q
n 0.13656685 Peri. 18.78641 +0.98828567 -0.00995127
a 3.7345578 Node 339.85767 -0.10696487 +0.66659683
e 0.4729124 Incl. 26.24758 +0.10885748 +0.74535202
P 7.22
From 353 observations 2000 Jan. 1-2013 Dec. 4, mean residual 0".8.
Nongravitational parameters A1 = -0.34, A2 = -0.2193.
|